C7607 Weather Reports


time (UTC)temp
C
wind
direction
speed
KPH
gust
KPH
rain 1hr
cm
rain 24hr
cm
rain mn
cm
humidity
%
barometer
mb
20260510183043 28 352 0.0 11.3 0.00 0.00 0.00 36 1015.7
20260510181536 28 5 4.8 11.3 0.00 0.00 0.00 36 1015.8
20260510180044 28 253 1.6 12.9 0.00 0.00 0.00 39 1015.8
20260510174549 28 258 0.0 14.5 0.00 0.00 0.00 35 1015.9
20260510173040 28 57 3.2 12.9 0.00 0.00 0.00 34 1015.9
20260510171548 27 0 1.6 11.3 0.00 0.00 0.00 37 1016.0
20260510170053 28 94 3.2 9.7 0.00 0.00 0.00 36 1016.0
20260510164543 27 24 4.8 12.9 0.00 0.00 0.00 37 1016.1
20260510163042 27 240 3.2 12.9 0.00 0.00 0.00 38 1016.2
20260510161540 27 57 6.4 17.7 0.00 0.00 0.00 34 1016.4
20260510160046 26 347 1.6 14.5 0.00 0.00 0.00 39 1016.5
20260510154547 26 321 1.6 11.3 0.00 0.00 0.00 38 1016.7
20260510153043 25 325 4.8 11.3 0.00 0.00 0.00 39 1016.8
20260510151543 25 339 0.0 6.4 0.00 0.00 0.00 52 1016.7
20260510150056 24 350 1.6 4.8 0.00 0.00 0.00 54 1016.6
20260510144551 23 312 1.6 6.4 0.00 0.00 0.00 58 1016.7
20260510143044 23 191 3.2 8.0 0.00 0.00 0.00 62 1016.5
20260510141535 22 293 1.6 9.7 0.00 0.00 0.00 66 1016.6
20260510140052 22 232 1.6 8.0 0.00 0.00 0.00 68 1016.6
20260510134544 21 225 1.6 6.4 0.00 0.00 0.00 73 1016.6
20260510133036 21 346 1.6 8.0 0.00 0.00 0.00 75 1016.6
20260510131536 20 273 3.2 9.7 0.00 0.00 0.00 81 1016.6
20260510130037 19 0 0.0 6.4 0.00 0.00 0.00 85 1016.5
20260510124553 18 0 0.0 0.0 0.00 0.00 0.00 90 1016.1
20260510123042 17 0 0.0 0.0 0.00 0.00 0.00 93 1016.1
20260510121540 17 0 0.0 0.0 0.00 0.00 0.00 95 1016.0
20260510120033 16 0 0.0 0.0 0.00 0.00 0.00 96 1015.9
20260510114544 16 0 0.0 0.0 0.00 0.00 0.00 96 1015.7
20260510113042 16 0 0.0 0.0 0.00 0.00 0.00 96 1015.5
20260510111543 16 0 0.0 0.0 0.00 0.00 0.00 96 1015.4
20260510110035 15 0 0.0 0.0 0.00 0.00 0.00 96 1015.1
20260510104543 15 0 0.0 0.0 0.00 0.00 0.00 95 1014.8
20260510103051 15 0 0.0 0.0 0.00 0.00 0.00 95 1014.6
20260510101545 15 0 0.0 0.0 0.00 0.00 0.00 95 1014.2
20260510100039 15 0 0.0 0.0 0.00 0.00 0.00 95 1013.9
20260510094544 15 0 0.0 0.0 0.00 0.00 0.00 94 1013.8
20260510093043 15 0 0.0 0.0 0.00 0.00 0.00 94 1013.7
20260510091543 16 0 0.0 0.0 0.00 0.00 0.00 93 1013.7
20260510090048 16 0 0.0 0.0 0.00 0.00 0.00 93 1013.5
20260510084543 16 0 0.0 4.8 0.00 0.00 0.00 93 1013.4
20260510083037 16 0 0.0 0.0 0.00 0.00 0.00 92 1013.3
20260510081539 16 0 0.0 0.0 0.00 0.00 0.00 92 1013.2
20260510080044 16 0 0.0 0.0 0.00 0.00 0.00 92 1013.2
20260510074543 16 0 0.0 0.0 0.00 0.00 0.00 92 1013.1
20260510073041 16 0 0.0 0.0 0.00 0.00 0.00 91 1013.0
20260510071538 16 0 0.0 3.2 0.00 0.00 0.00 91 1012.9
20260510070040 16 0 1.6 4.8 0.00 0.00 0.00 92 1013.0
20260510064543 16 0 0.0 0.0 0.00 0.00 0.00 91 1013.1
20260510063044 16 0 0.0 1.6 0.00 0.00 0.00 90 1012.9
20260510061542 17 0 0.0 0.0 0.00 0.00 0.00 90 1012.7
20260510060037 17 0 0.0 1.6 0.00 0.00 0.00 89 1012.9
20260510054557 17 0 0.0 0.0 0.00 0.00 0.00 90 1013.1
20260510053045 17 0 0.0 0.0 0.00 0.00 0.00 89 1013.2
20260510051543 17 0 0.0 0.0 0.00 0.00 0.00 89 1013.3
20260510050038 17 0 0.0 3.2 0.00 0.00 0.00 89 1013.3
20260510044542 17 0 0.0 4.8 0.00 0.00 0.00 88 1013.5
20260510043043 17 0 0.0 0.0 0.00 0.00 0.00 89 1013.4
20260510041600 18 0 0.0 0.0 0.00 0.00 0.00 88 1013.4
20260510040042 18 0 0.0 0.0 0.00 0.00 0.00 88 1013.4
20260510034542 18 0 0.0 0.0 0.00 0.00 0.00 87 1013.3
20260510033053 18 0 0.0 0.0 0.00 0.00 0.00 87 1013.3
20260510031551 18 0 0.0 0.0 0.00 0.00 0.00 86 1013.2
20260510030045 18 0 0.0 0.0 0.00 0.00 0.00 85 1013.1
20260510024551 18 0 0.0 0.0 0.00 0.00 0.00 84 1013.1
20260510023044 19 0 1.6 6.4 0.00 0.00 0.00 83 1013.0
20260510021543 19 211 3.2 8.0 0.00 0.00 0.00 83 1012.9
20260510020042 19 178 1.6 6.4 0.00 0.00 0.00 83 1013.0
20260510014542 19 0 0.0 4.8 0.00 0.00 0.00 83 1012.8
20260510013048 20 0 0.0 3.2 0.00 0.00 0.00 80 1012.4
20260510011543 21 0 0.0 6.4 0.00 0.00 0.00 77 1012.2
20260510010043 22 278 3.2 6.4 0.00 0.00 0.00 76 1012.0
20260510004547 22 322 3.2 6.4 0.00 0.00 0.00 74 1012.1
20260510003045 20 0 0.0 4.8 0.00 0.00 0.00 79 1012.1
20260510001543 21 0 0.0 4.8 0.00 0.00 0.00 77 1012.0
20260510000043 21 221 1.6 6.4 0.00 0.00 0.00 76 1011.8
20260509234542 21 199 1.6 4.8 0.00 0.00 0.00 75 1011.8
20260509233041 22 184 3.2 9.7 0.00 0.00 0.00 73 1011.4
20260509231536 22 241 3.2 11.3 0.00 0.00 0.00 71 1011.5
20260509230044 22 182 1.6 9.7 0.00 0.00 0.00 71 1011.2
20260509224541 23 219 3.2 14.5 0.00 0.00 0.00 69 1011.0
20260509223049 22 231 3.2 12.9 0.00 0.00 0.00 71 1011.2
20260509221538 22 225 3.2 12.9 0.00 0.00 0.00 71 1011.3
20260509220045 23 190 3.2 14.5 0.00 0.00 0.00 70 1011.2
20260509214542 23 234 3.2 12.9 0.00 0.00 0.00 70 1011.3
20260509213035 22 232 6.4 12.9 0.00 0.00 0.00 70 1011.3
20260509211548 23 203 8.0 16.1 0.00 0.00 0.00 68 1011.1
20260509210053 23 228 3.2 11.3 0.00 0.00 0.00 69 1011.1
20260509204542 22 219 4.8 12.9 0.00 0.00 0.00 70 1011.3
20260509203040 22 232 1.6 12.9 0.00 0.00 0.00 71 1011.2
20260509201548 22 243 3.2 12.9 0.00 0.00 0.00 72 1011.2
20260509200048 22 221 1.6 12.9 0.00 0.00 0.00 70 1011.2
20260509194543 22 214 4.8 12.9 0.00 0.00 0.00 70 1011.5
20260509193043 22 247 4.8 16.1 0.00 0.00 0.00 69 1011.6
20260509191542 22 211 4.8 16.1 0.00 0.00 0.00 68 1011.8
20260509190046 22 218 8.0 17.7 0.00 0.00 0.00 65 1011.8
20260509184538 24 236 8.0 17.7 0.00 0.00 0.00 59 1011.8